[[{"header":{"parameterUnit":"m.s-1","parameterCategory":1,"la1":30.2991,"la2":30.254,"lo1":-89.0895,"lo2":-89.0444,"dy":0.0017,"dx":0.0017,"nx":28,"ny":28,"refTime":"2024-07-18T09:00:00:Z","depth":0,"parameterNumber":2,"parameterNumberName":"U-component_of_WINDS"},"data":[0,0,0,0,0,0,0,0,0,0,0,0,0,0,0,0,0,0,0,0,0,0,0,0,0,0,0,0,0,0,0,0,0,0,0,0,0,0,0,0,0,0,0,0,0,0,0,0,0,0,0,0,0,0,0,0,0,0,1.2399,1.2398,0,1.2266,1.2265,1.2263,1.2179,1.2179,1.2178,1.2178,1.2037,1.2034,1.2031,0,0,0,0,0,0,0,0,0,0,0,0,0,1.2574,1.2571,1.2399,1.2398,1.2396,1.2266,1.2264,1.2263,1.2179,1.2179,1.2178,1.2177,1.2038,1.2034,1.2031,0,0,0,0,0,0,0,0,0,0,0,0,0,1.2475,1.257,1.24,1.2339,1.2332,1.2267,1.2264,1.2262,1.2179,1.2179,1.2178,1.2177,1.204,1.2035,1.203,1.2013,0,0,1.2015,1.2013,0,0,0,0,0,0,0,0,1.2481,1.2469,1.2349,1.2343,1.2335,1.2238,1.2274,1.2179,1.2179,1.2237,1.2178,1.2177,1.2105,1.2094,1.2071,1.2007,1.2001,1.2014,1.2011,1.2009,1.2008,0,0,0,0,0,0,0,1.2488,1.2474,1.2346,1.2348,1.2339,1.2316,1.2301,1.2256,1.2176,1.2232,1.2226,1.2211,1.21,1.2076,1.2067,1.1999,1.2015,1.201,1.2007,1.2005,1.1909,1.1909,0,0,0,0,0,0,1.2505,1.248,1.2351,1.2342,1.2408,1.2313,1.2296,1.227,1.2177,1.2162,1.2212,1.2208,1.2084,1.2073,1.2061,1.2033,1.2009,1.2005,1.2002,1.1908,1.1909,1.1909,0,0,0,0,0,0,1.2509,1.2494,1.2356,1.2409,1.239,1.2311,1.2282,1.2268,1.2243,1.2161,1.2146,1.2202,1.2083,1.2068,1.2025,1.2027,1.2002,1.1998,1.1908,1.1909,1.1909,1.1977,0,0,0,0,0,0,1.2514,1.2496,1.2491,1.241,1.2388,1.2324,1.2282,1.2266,1.2235,1.2228,1.2148,1.2134,1.2082,1.2033,1.202,1.2019,1.1994,1.1907,1.1908,1.1909,1.1975,1.198,1.1985,0,0,0,0,0,1.2521,1.2516,1.2491,1.2476,1.238,1.2325,1.2312,1.2253,1.2236,1.2228,1.2175,1.2136,1.2029,1.2029,1.2014,1.2012,1.1907,1.1908,1.1909,1.1972,1.1979,1.1985,0,0,0,0,0,0,1.2599,1.2504,1.2476,1.2445,1.2394,1.2311,1.23,1.2263,1.2215,1.221,1.2138,1.212,1.2083,1.2043,1.2045,1.1988,1.1963,1.1961,1.2016,1.2022,1.2027,1.2037,1.199,0,0,0,0,0,1.2613,1.2578,1.2496,1.2476,1.2452,1.2381,1.2354,1.2313,1.2257,1.2234,1.2178,1.2123,1.2076,1.2047,1.2,1.1968,1.1947,1.1958,1.1964,1.1968,1.1967,1.1943,1.1946,1.1912,1.1912,1.1912,0,0,1.264,1.2584,1.2566,1.249,1.2446,1.2408,1.2363,1.2326,1.2297,1.2228,1.2183,1.214,1.2073,1.2035,1.2015,1.2,1.1972,1.197,1.1974,1.197,1.1944,1.1948,1.1951,1.1913,1.1913,1.1913,0,0,1.2671,1.2627,1.2604,1.2559,1.2492,1.2444,1.2439,1.236,1.2329,1.2283,1.2229,1.2192,1.2114,1.2067,1.2034,1.2042,1.2003,1.2029,1.2056,1.2033,1.2036,1.2038,1.2038,1.2039,1.2028,1.2028,1.2028,0,1.2714,1.2658,1.2596,1.2562,1.2528,1.2464,1.2438,1.2397,1.2318,1.2295,1.2279,1.2177,1.2128,1.2076,1.2077,1.2053,1.2042,1.2038,1.2041,1.2042,1.2043,1.2042,1.2043,1.2031,1.2031,1.2031,1.203,0,1.2711,1.2673,1.2662,1.2587,1.2551,1.2522,1.2453,1.2424,1.2385,1.2338,1.2289,1.2227,1.2164,1.2149,1.2111,1.209,1.2082,1.2055,1.2028,1.205,1.2048,1.2048,1.2036,1.2035,1.2034,1.2033,0,0,1.2789,1.2679,1.2675,1.2639,1.2558,1.2526,1.2491,1.243,1.2406,1.2352,1.2318,1.2252,1.2225,1.2186,1.2142,1.2122,1.2128,1.2096,1.2093,1.2102,1.2097,1.2117,1.2118,1.2102,1.2102,1.2101,1.2101,0,1.2806,1.2743,1.2685,1.2641,1.2602,1.2539,1.2508,1.2454,1.2407,1.2365,1.2313,1.2266,1.2236,1.2211,1.2189,1.2133,1.2126,1.2132,1.2067,1.2066,1.2085,1.2117,1.2139,1.2143,1.2101,1.21,1.21,0,1.2819,1.2768,1.2721,1.2641,1.2622,1.2596,1.2533,1.2495,1.243,1.2397,1.2353,1.2305,1.2261,1.2239,1.2175,1.2181,1.215,1.2118,1.2116,1.2107,1.2084,1.2107,1.2143,1.2143,1.2099,1.2099,1.2099,0,1.2877,1.2797,1.2757,1.2728,1.2634,1.2616,1.2576,1.2511,1.2476,1.2421,1.2397,1.2337,1.2303,1.2256,1.2192,1.2182,1.2134,1.2107,1.2103,1.2104,1.2096,1.2097,1.2125,1.2079,1.2079,1.2079,1.2079,0,1.2902,1.2875,1.2782,1.2757,1.2723,1.2655,1.2623,1.2576,1.2518,1.248,1.2422,1.2387,1.2306,1.226,1.221,1.2163,1.2149,1.2118,1.2105,1.2123,1.2127,1.2102,1.2099,1.2079,1.2079,1.2079,1.2079,0,1.2962,1.2899,1.2851,1.2765,1.2743,1.2721,1.2647,1.2618,1.2568,1.2521,1.2506,1.2426,1.2369,1.2301,1.2222,1.2187,1.2144,1.2125,1.2167,1.2159,1.2158,1.2158,1.217,1.2167,1.2125,1.2125,1.2126,0,1.2981,1.2959,1.287,1.2842,1.2804,1.2759,1.2723,1.2654,1.2618,1.2541,1.2521,1.246,1.2408,1.2319,1.2252,1.219,1.2168,1.2176,1.2158,1.2176,1.2165,1.2167,1.2162,1.2181,1.2182,1.2182,1.2183,0,1.3021,1.299,1.2943,1.2883,1.2843,1.2792,1.2738,1.2718,1.2636,1.2599,1.2541,1.25,1.2419,1.2358,1.2287,1.2241,1.2197,1.2189,1.2184,1.2202,1.2226,1.221,1.2178,1.2189,1.2188,1.2188,1.2188,1.2187,1.3059,1.3035,1.2968,1.2916,1.2869,1.2819,1.2788,1.2733,1.2684,1.2613,1.2574,1.2516,1.2447,1.2347,1.2303,1.2254,1.2239,1.2233,1.2231,1.223,1.2234,1.2235,1.2241,1.2241,1.224,1.224,1.224,0,1.3094,1.3047,1.3,1.2927,1.2885,1.2849,1.2787,1.2753,1.2703,1.2643,1.2593,1.2523,1.2463,1.239,1.2324,1.2298,1.2276,1.2283,1.2283,1.2273,1.2253,1.2263,1.2302,1.2302,1.2302,1.2302,1.2302,1.2302,1.3107,1.3063,1.3024,1.2954,1.2907,1.2851,1.2818,1.2771,1.2722,1.2649,1.2598,1.2552,1.2485,1.2413,1.2354,1.2334,1.2311,1.2324,1.2297,1.228,1.2275,1.227,1.2278,1.232,1.232,1.2321,1.2321,1.2321]},{"header":{"parameterUnit":"m.s-1","parameterCategory":1,"la1":30.2991,"la2":30.254,"lo1":-89.0895,"lo2":-89.0444,"dy":0.0017,"dx":0.0017,"nx":28,"ny":28,"refTime":"2024-07-18T09:00:00:Z","depth":0,"parameterNumber":3,"parameterNumberName":"V-component_of_WINDS"},"data":[0,0,0,0,0,0,0,0,0,0,0,0,0,0,0,0,0,0,0,0,0,0,0,0,0,0,0,0,0,0,0,0,0,0,0,0,0,0,0,0,0,0,0,0,0,0,0,0,0,0,0,0,0,0,0,0,0,0,4.4251,4.4252,0,4.4286,4.4286,4.4287,4.4385,4.4387,4.4389,4.4391,4.4419,4.4418,4.4417,0,0,0,0,0,0,0,0,0,0,0,0,0,4.4265,4.4264,4.4251,4.4252,4.4252,4.4286,4.4286,4.4287,4.4385,4.4387,4.439,4.4392,4.442,4.4418,4.4417,0,0,0,0,0,0,0,0,0,0,0,0,0,4.4275,4.4264,4.4251,4.4305,4.4311,4.4286,4.4286,4.4287,4.4384,4.4387,4.4391,4.4394,4.442,4.4418,4.4417,4.434,0,0,4.4411,4.441,0,0,0,0,0,0,0,0,4.4274,4.4274,4.4297,4.4302,4.4307,4.4335,4.4302,4.4304,4.4383,4.4356,4.4392,4.4395,4.4388,4.4389,4.4388,4.4341,4.4343,4.4411,4.4409,4.4409,4.4408,0,0,0,0,0,0,0,4.4273,4.4273,4.4265,4.4297,4.4303,4.4326,4.4331,4.4302,4.4353,4.4359,4.4366,4.4369,4.4392,4.439,4.439,4.4343,4.4411,4.4409,4.4408,4.4407,4.4233,4.423,0,0,0,0,0,0,4.4266,4.4272,4.4264,4.4266,4.4299,4.4323,4.4329,4.4322,4.4354,4.4362,4.4366,4.4373,4.4391,4.4392,4.4391,4.43,4.4409,4.4407,4.4406,4.4236,4.4232,4.4228,0,0,0,0,0,0,4.4266,4.4264,4.4262,4.4271,4.4273,4.432,4.4312,4.4321,4.432,4.436,4.4369,4.4355,4.4394,4.4394,4.4352,4.4303,4.4406,4.4404,4.4241,4.4235,4.423,4.412,0,0,0,0,0,0,4.4266,4.4263,4.4236,4.427,4.4272,4.4224,4.4309,4.432,4.4317,4.4327,4.4352,4.4359,4.4397,4.4354,4.435,4.4302,4.4403,4.4245,4.4238,4.4232,4.4128,4.4111,4.4097,0,0,0,0,0,4.4266,4.4202,4.4234,4.4232,4.4238,4.4221,4.4222,4.4268,4.4313,4.4284,4.431,4.4358,4.4311,4.4349,4.4345,4.4296,4.4248,4.424,4.4232,4.4135,4.4115,4.4098,0,0,0,0,0,0,4.4158,4.4207,4.4243,4.4189,4.42,4.4238,4.4202,4.4246,4.4243,4.4252,4.4308,4.4313,4.4262,4.4276,4.4319,4.4223,4.4287,4.4278,4.4214,4.4195,4.418,4.4175,4.4401,0,0,0,0,0,4.4128,4.4112,4.4156,4.4104,4.4108,4.4154,4.4149,4.4184,4.4197,4.4201,4.4224,4.4233,4.422,4.421,4.42,4.4133,4.4137,4.4097,4.4082,4.4069,4.4058,4.4021,4.4002,4.4203,4.4203,4.4203,0,0,4.4065,4.4091,4.4076,4.4083,4.4096,4.4075,4.4157,4.4132,4.4116,4.4197,4.4158,4.4176,4.4189,4.4134,4.4111,4.4143,4.4005,4.4059,4.4049,4.4045,4.4011,4.3992,4.3975,4.4197,4.4198,4.4199,0,0,4.3939,4.3959,4.3916,4.3929,4.3949,4.3981,4.3971,4.4002,4.4017,4.3981,4.404,4.4022,4.4,4.4006,4.4006,4.3886,4.3928,4.3882,4.3799,4.3762,4.3746,4.3732,4.3684,4.3667,4.3873,4.3873,4.3872,0,4.3857,4.383,4.3888,4.3859,4.3859,4.3936,4.3891,4.39,4.3914,4.3911,4.395,4.3922,4.3937,4.3883,4.3854,4.3854,4.384,4.3876,4.3744,4.3731,4.3719,4.3673,4.3656,4.3866,4.3867,4.3868,4.3868,0,4.3727,4.3708,4.3671,4.3685,4.3682,4.3645,4.3695,4.3685,4.3722,4.3749,4.371,4.3732,4.3727,4.3718,4.3753,4.3668,4.3688,4.3735,4.3799,4.3692,4.365,4.3634,4.3857,4.386,4.3862,4.3863,0,0,4.3526,4.3577,4.3561,4.3568,4.3598,4.3583,4.355,4.3548,4.3536,4.3545,4.3515,4.3497,4.3541,4.3541,4.3578,4.3547,4.3445,4.3598,4.3599,4.3563,4.3347,4.3306,4.3286,4.3477,4.3474,4.3472,4.3344,0,4.3402,4.3349,4.3402,4.3337,4.3318,4.3393,4.3364,4.3378,4.3404,4.339,4.3419,4.3402,4.3464,4.3464,4.3437,4.3463,4.3401,4.3474,4.3445,4.3443,4.3432,4.3265,4.3222,4.31,4.3329,4.3326,4.3324,0,4.3249,4.3253,4.3186,4.3221,4.3215,4.3188,4.3189,4.3178,4.3195,4.3216,4.3218,4.3265,4.3233,4.3302,4.3256,4.3304,4.3297,4.3308,4.3305,4.3297,4.3371,4.3247,4.3063,4.3041,4.33,4.3302,4.3304,0,4.3102,4.3092,4.305,4.3055,4.3095,4.3073,4.3089,4.311,4.3105,4.3108,4.3104,4.3103,4.3099,4.3096,4.314,4.3187,4.3087,4.3161,4.3099,4.3097,4.3068,4.3067,4.2873,4.3075,4.3075,4.3075,4.3076,0,4.2953,4.2908,4.2984,4.2957,4.2909,4.2972,4.2921,4.2944,4.2963,4.294,4.3007,4.2984,4.3048,4.3031,4.3067,4.3021,4.302,4.3033,4.3041,4.3023,4.302,4.3013,4.302,4.3071,4.3072,4.3073,4.3073,0,4.2777,4.2827,4.2786,4.2829,4.2839,4.2801,4.2837,4.2813,4.2846,4.2817,4.2813,4.2863,4.2847,4.2894,4.2885,4.2909,4.284,4.2866,4.2834,4.2839,4.2772,4.2775,4.256,4.2532,4.2758,4.2756,4.2754,0,4.2675,4.2642,4.2683,4.2674,4.2687,4.2672,4.2669,4.273,4.2723,4.2742,4.2714,4.2705,4.27,4.2671,4.2704,4.2697,4.2719,4.2645,4.2717,4.2699,4.271,4.2708,4.2703,4.2626,4.2623,4.2621,4.2619,0,4.2486,4.2514,4.2507,4.251,4.2505,4.2509,4.2518,4.2506,4.2572,4.2561,4.2547,4.2543,4.2536,4.2524,4.2525,4.2539,4.2587,4.2598,4.2582,4.2558,4.2538,4.2542,4.2785,4.26,4.2602,4.2603,4.2604,4.2605,4.2339,4.2313,4.2338,4.2329,4.2343,4.235,4.2329,4.2362,4.2352,4.2351,4.239,4.2367,4.2386,4.2393,4.2402,4.2384,4.2417,4.2396,4.2389,4.238,4.2366,4.2548,4.2385,4.2386,4.2386,4.2387,4.2387,0,4.2149,4.217,4.2162,4.2173,4.2165,4.222,4.2233,4.2221,4.2201,4.2217,4.2211,4.2194,4.2184,4.2219,4.2213,4.2191,4.2213,4.2187,4.2185,4.2186,4.234,4.2351,4.2169,4.2169,4.2169,4.2169,4.2169,4.2169,4.2048,4.2005,4.2036,4.2001,4.2023,4.2003,4.2005,4.2011,4.2023,4.2002,4.1995,4.202,4.2042,4.2039,4.2031,4.2042,4.2033,4.1997,4.2014,4.2155,4.2176,4.2196,4.2206,4.1997,4.1997,4.1862,4.186,4.1859]}]]